FW0979 Weather Reports


time (UTC)temp
C
wind
direction
speed
KPH
gust
KPH
rain 1hr
cm
rain 24hr
cm
rain mn
cm
humidity
%
barometer
mb
20260506200018 24 360 11.3 22.5 0.00 0.00 0.00 23 1008.8
20260506194517 24 267 16.1 29.0 0.00 0.00 0.00 21 1009.1
20260506193018 23 231 11.3 22.5 0.00 0.00 0.00 27 1008.9
20260506191510 23 360 3.2 14.5 0.00 0.00 0.00 32 1009.1
20260506190010 23 337 4.8 14.5 0.00 0.00 0.00 32 1009.5
20260506184507 23 304 4.8 11.3 0.00 0.00 0.00 34 1009.9
20260506183005 21 360 4.8 12.9 0.00 0.00 0.00 37 1010.2
20260506181510 22 137 3.2 11.3 0.00 0.00 0.00 36 1010.5
20260506180100 20 160 6.4 14.5 0.00 0.00 0.00 41 1010.7
20260506174554 19 88 8.0 16.1 0.00 0.00 0.00 43 1010.7
20260506173116 18 124 8.0 17.7 0.00 0.00 0.00 44 1010.9
20260506171545 18 89 8.0 17.7 0.00 0.00 0.00 48 1010.8
20260506170056 17 360 8.0 17.7 0.00 0.00 0.00 50 1010.9
20260506164538 16 360 8.0 16.1 0.00 0.00 0.00 51 1010.9
20260506163041 16 100 8.0 16.1 0.00 0.00 0.00 53 1010.9
20260506161532 15 110 8.0 16.1 0.00 0.00 0.00 55 1011.0
20260506160029 14 96 8.0 17.7 0.00 0.00 0.00 58 1010.9
20260506154525 14 360 9.7 0.0 0.00 0.00 0.00 59 1010.8
20260506153024 13 96 9.7 19.3 0.00 0.00 0.00 61 1010.9
20260506151516 12 360 11.3 19.3 0.00 0.00 0.00 64 1010.8
20260506150016 12 81 11.3 19.3 0.00 0.00 0.00 66 1010.7
20260506144508 12 74 9.7 17.7 0.00 0.00 0.00 69 1010.6
20260506143009 11 75 12.9 19.3 0.00 0.00 0.00 72 1010.4
20260506141503 11 360 9.7 19.3 0.00 0.00 0.00 73 1010.4
20260506140100 10 72 12.9 24.1 0.00 0.00 0.00 73 1010.4
20260506134558 10 65 14.5 22.5 0.00 0.00 0.00 75 1010.2
20260506133107 10 106 12.9 27.4 0.00 0.00 0.00 75 1009.9
20260506131546 11 360 14.5 27.4 0.00 0.00 0.00 74 1009.8
20260506130040 11 94 12.9 22.5 0.00 0.00 0.00 72 1009.4
20260506124532 12 75 8.0 27.4 0.00 0.00 0.00 68 1008.8
20260506123023 13 50 6.4 12.9 0.00 0.00 0.00 60 1008.5
20260506121515 14 345 3.2 11.3 0.00 0.00 0.00 55 1008.2
20260506120007 15 343 6.4 9.7 0.00 0.00 0.00 51 1007.9
20260506114502 15 340 3.2 9.7 0.00 0.00 0.00 48 1007.6
20260506113056 16 340 9.7 14.5 0.00 0.00 0.00 45 1007.7
20260506111551 17 360 8.0 14.5 0.00 0.00 0.00 40 1007.2
20260506110049 17 266 11.3 16.1 0.00 0.00 0.00 40 1007.0
20260506104608 17 360 8.0 16.1 0.00 0.00 0.00 41 1006.8
20260506103043 17 360 8.0 12.9 0.00 0.00 0.00 42 1006.5
20260506101542 17 247 8.0 17.7 0.00 0.00 0.00 44 1006.3
20260506100043 16 238 6.4 14.5 0.00 0.00 0.00 47 1006.3
20260506094538 16 360 4.8 12.9 0.00 0.00 0.00 51 1006.2
20260506093032 16 360 8.0 12.9 0.00 0.00 0.00 55 1006.1
20260506091529 16 360 6.4 11.3 0.00 0.00 0.00 56 1006.1
20260506090025 16 360 8.0 14.5 0.00 0.00 0.00 54 1005.8
20260506084521 16 217 6.4 11.3 0.00 0.00 0.00 54 1005.8
20260506083034 16 360 4.8 11.3 0.00 0.00 0.00 53 1005.7
20260506081516 16 281 4.8 9.7 0.00 0.00 0.00 53 1005.4
20260506073009 17 360 3.2 6.4 0.00 0.00 0.00 51 1005.3
20260506071508 17 360 3.2 8.0 0.00 0.00 0.00 50 1005.3
20260506061555 17 288 6.4 8.0 0.00 0.00 0.00 49 1004.8
20260506044542 18 360 4.8 8.0 0.00 0.00 0.00 44 1004.7
20260506043049 18 287 4.8 9.7 0.00 0.00 0.00 43 1004.7
20260506041545 19 360 8.0 12.9 0.00 0.00 0.00 42 1004.4
20260506040047 19 360 3.2 8.0 0.00 0.00 0.00 43 1004.5
20260506034540 19 295 4.8 9.7 0.00 0.00 0.00 43 1004.5
20260506033038 19 297 4.8 11.3 0.00 0.00 0.00 42 1004.2
20260506031539 20 312 9.7 16.1 0.00 0.00 0.00 41 1003.8
20260506030037 20 293 9.7 16.1 0.00 0.00 0.00 39 1003.7
20260506024543 21 281 9.7 16.1 0.00 0.00 0.00 37 1003.8
20260506023036 21 360 12.9 24.1 0.00 0.00 0.00 36 1003.8
20260506021550 22 360 14.5 24.1 0.00 0.00 0.00 35 1003.5
20260506020034 22 277 17.7 22.5 0.00 0.00 0.00 34 1003.4
20260506014534 22 290 16.1 29.0 0.00 0.00 0.00 34 1003.3
20260506013033 22 284 14.5 24.1 0.00 0.00 0.00 33 1003.1
20260506011533 22 276 20.9 30.6 0.00 0.00 0.00 33 1002.9
20260506010044 22 289 20.9 29.0 0.00 0.00 0.00 32 1002.8
20260506004530 23 360 22.5 37.0 0.00 0.00 0.00 31 1002.8
20260506003030 23 276 25.7 40.2 0.00 0.00 0.00 31 1002.9
20260506001528 23 297 24.1 38.6 0.00 0.00 0.00 30 1002.8
20260506000028 24 294 32.2 49.9 0.00 0.00 0.00 30 1002.9
20260505234535 24 264 25.7 43.5 0.00 0.00 0.00 29 1002.7
20260505233029 25 283 24.1 46.7 0.00 0.00 0.00 28 1002.6
20260505231529 25 302 35.4 54.7 0.00 0.00 0.00 27 1002.4
20260505230024 25 245 16.1 32.2 0.00 0.00 0.00 27 1002.3
20260505224527 25 259 16.1 30.6 0.00 0.00 0.00 27 1002.4
20260505223019 24 269 19.3 30.6 0.00 0.00 0.00 28 1002.5
20260505221617 24 360 17.7 35.4 0.00 0.00 0.00 28 1002.6
20260505220013 23 274 19.3 35.4 0.00 0.00 0.00 29 1002.7
20260505214514 23 283 16.1 35.4 0.00 0.00 0.00 28 1003.1
20260505213016 23 360 19.3 35.4 0.00 0.00 0.00 27 1003.3
20260505211527 23 284 24.1 43.5 0.00 0.00 0.00 26 1003.6
20260505210011 24 272 20.9 40.2 0.00 0.00 0.00 27 1003.7
20260505204508 23 265 19.3 37.0 0.00 0.00 0.00 28 1003.4
20260505203004 23 360 19.3 30.6 0.00 0.00 0.00 27 1003.5
20260505201506 23 266 17.7 32.2 0.00 0.00 0.00 29 1003.7